Location: Caltech
(34.1382°N, 118.1253°W)
Time: 00:00:39
(UTC-07:00)

Cosmos 2084 - Visible Passes

Search period start: 18 August 2017 00:00
Search period end: 28 August 2017 00:00
Orbit: 495 x 690 km, 62.8° (Epoch: 17 August)

Date Brightness Start Highest point End Pass type
(mag) Time Alt. Az. Time Alt. Az. Time Alt. Az.
18 Aug 4.3 05:17:13 10° S 05:21:11 45° ESE 05:24:59 10° NE visible
19 Aug 3.2 05:25:48 10° SSW 05:29:57 87° WNW 05:33:53 10° NNE visible
20 Aug 5.9 03:58:27 12° SE 03:59:36 13° ESE 04:01:32 10° E visible
20 Aug 3.8 05:35:04 11° SW 05:38:45 42° NW 05:42:30 10° NNE visible
21 Aug 5.0 04:07:39 24° SE 04:08:14 25° ESE 04:11:33 10° ENE visible
21 Aug 4.7 05:44:23 10° WSW 05:47:39 23° NW 05:50:49 10° N visible
22 Aug 3.8 04:16:46 50° SE 04:16:57 51° ESE 04:20:47 10° NE visible
23 Aug 3.2 04:25:48 77° NW 04:25:48 77° NW 04:29:38 10° NNE visible
24 Aug 4.0 04:34:44 38° NW 04:34:44 38° NW 04:38:12 10° NNE visible
25 Aug 6.4 03:07:01 12° ENE 03:07:01 12° ENE 03:07:25 10° NE visible
25 Aug 4.9 04:43:37 21° NW 04:43:37 21° NW 04:46:28 10° N visible
26 Aug 6.2 03:15:51 15° NE 03:15:51 15° NE 03:16:34 10° NE visible
26 Aug 5.5 04:52:26 12° NW 04:52:26 12° NW 04:54:01 10° NNW visible
27 Aug 6.1 03:24:37 15° NNE 03:24:37 15° NNE 03:25:22 10° NNE visible
